Private Wetterstation Wechselburg
Wetterdaten: Mittwoch, 13.04.2011
Datum Zeit Temp. +2m Bodentemp. Temp.+5cm Temp. Wind Windchill X Diff Temp. Feuchte +2m Feuchte +5cm Sonnenschein Luftdruck Regen Wind Richtung Richtung Sonnenschein UV Taupunkt Windchill Windben
13.04.2011 00:00 6,6 C 12,0 C 6,0 C 5,9 C 3,7 C 0,0 C 60 % 64 % 0 % 1018,8 hPa 0,0 l/m 9,7 km/h (2 Bft) SW 225 0 min 0,0 UV-I -0,6 C 1,2 C 11,9 km/h (2 Bft)
13.04.2011 00:08 6,7 C 12,0 C 5,8 C 5,9 C 3,2 C 0,0 C 62 % 65 % 0 % 1018,8 hPa 0,0 l/m 11,4 km/h (2 Bft) N 0 0 min 0,0 UV-I -0,1 C 0,2 C 14,6 km/h (3 Bft)
13.04.2011 00:15 6,7 C 12,0 C 5,8 C 5,8 C 2,9 C 0,0 C 62 % 66 % 0 % 1018,4 hPa 0,0 l/m 12,9 km/h (3 Bft) SW 225 0 min 0,0 UV-I -0,1 C -0,5 C 26,2 km/h (4 Bft)
13.04.2011 00:20 6,5 C 12,0 C 5,8 C 5,3 C 2,9 C 0,0 C 63 % 66 % 0 % 1018,4 hPa 0,0 l/m 13,5 km/h (3 Bft) SW 225 0 min 0,0 UV-I -0,0 C -0,6 C 11,9 km/h (2 Bft)
13.04.2011 00:25 6,5 C 12,0 C 5,9 C 5,6 C 3,1 C 0,0 C 63 % 67 % 0 % 1018,4 hPa 0,0 l/m 12,6 km/h (3 Bft) S-SW 202 0 min 0,0 UV-I -0,0 C -0,2 C 14,0 km/h (3 Bft)
13.04.2011 00:30 6,5 C 12,0 C 5,9 C 5,4 C 3,1 C 0,0 C 64 % 67 % 0 % 1018,4 hPa 0,0 l/m 12,4 km/h (3 Bft) S 180 0 min 0,0 UV-I 0,2 C -0,1 C 18,8 km/h (3 Bft)
13.04.2011 00:35 6,5 C 11,9 C 5,8 C 5,6 C 2,9 C 0,0 C 64 % 68 % 0 % 1018,5 hPa 0,0 l/m 12,9 km/h (3 Bft) SW 225 0 min 0,0 UV-I 0,2 C -0,5 C 15,1 km/h (3 Bft)
13.04.2011 00:40 6,4 C 11,9 C 5,8 C 5,2 C 2,9 C 0,0 C 64 % 68 % 0 % 1018,5 hPa 0,0 l/m 13,0 km/h (3 Bft) W-SW 247 0 min 0,0 UV-I 0,1 C -0,5 C 7,9 km/h (2 Bft)
13.04.2011 00:45 6,4 C 11,9 C 5,7 C 5,6 C 3,0 C 0,0 C 65 % 69 % 0 % 1018,5 hPa 0,0 l/m 12,7 km/h (3 Bft) SW 225 0 min 0,0 UV-I 0,3 C -0,3 C 17,2 km/h (3 Bft)
13.04.2011 00:50 6,5 C 11,9 C 5,7 C 5,3 C 3,0 C 0,0 C 65 % 69 % 0 % 1018,5 hPa 0,0 l/m 12,1 km/h (2 Bft) SO 135 0 min 0,0 UV-I 0,4 C -0,2 C 15,1 km/h (3 Bft)
13.04.2011 00:55 6,4 C 11,9 C 5,6 C 5,5 C 2,8 C 0,0 C 66 % 69 % 0 % 1018,3 hPa 0,0 l/m 12,7 km/h (3 Bft) SW 225 0 min 0,0 UV-I 0,5 C -0,5 C 12,6 km/h (3 Bft)
13.04.2011 01:00 6,4 C 11,9 C 5,7 C 5,2 C 2,8 C 0,0 C 66 % 70 % 0 % 1018,3 hPa 0,0 l/m 12,4 km/h (3 Bft) SW 225 0 min 0,0 UV-I 0,5 C -0,5 C 11,9 km/h (2 Bft)
13.04.2011 01:10 6,3 C 11,9 C 5,6 C 5,4 C 2,6 C 0,0 C 67 % 71 % 0 % 1018,3 hPa 0,0 l/m 13,0 km/h (3 Bft) N 0 0 min 0,0 UV-I 0,6 C -0,8 C 15,6 km/h (3 Bft)
13.04.2011 01:15 6,3 C 11,8 C 5,5 C 5,3 C 2,4 C 0,0 C 67 % 71 % 0 % 1018,3 hPa 0,0 l/m 13,5 km/h (3 Bft) SW 225 0 min 0,0 UV-I 0,6 C -1,2 C 9,5 km/h (2 Bft)
13.04.2011 01:20 6,1 C 11,8 C 5,5 C 5,2 C 2,3 C 0,0 C 67 % 71 % 0 % 1018,3 hPa 0,0 l/m 13,4 km/h (3 Bft) S 180 0 min 0,0 UV-I 0,4 C -1,3 C 14,0 km/h (3 Bft)
13.04.2011 01:25 6,1 C 11,9 C 5,3 C 5,1 C 2,1 C 0,0 C 68 % 72 % 0 % 1018,3 hPa 0,0 l/m 12,2 km/h (2 Bft) SW 225 0 min 0,0 UV-I 0,6 C -1,3 C 26,4 km/h (4 Bft)
13.04.2011 01:30 6,0 C 11,9 C 5,3 C 4,7 C 2,1 C 0,0 C 68 % 72 % 0 % 1018,3 hPa 0,0 l/m 11,7 km/h (2 Bft) SW 225 0 min 0,0 UV-I 0,6 C -1,2 C 12,7 km/h (3 Bft)
13.04.2011 01:35 5,9 C 11,9 C 5,1 C 4,9 C 1,9 C 0,0 C 68 % 72 % 0 % 1018,4 hPa 0,0 l/m 12,1 km/h (2 Bft) S 180 0 min 0,0 UV-I 0,5 C -1,5 C 8,5 km/h (2 Bft)
13.04.2011 01:40 5,9 C 11,9 C 5,0 C 4,8 C 1,4 C 0,0 C 68 % 72 % 0 % 1018,4 hPa 0,0 l/m 13,7 km/h (3 Bft) W-SW 247 0 min 0,0 UV-I 0,5 C -2,4 C 20,1 km/h (4 Bft)
13.04.2011 01:45 5,7 C 11,9 C 5,0 C 4,3 C 1,4 C 0,0 C 69 % 72 % 0 % 1018,4 hPa 0,0 l/m 13,4 km/h (3 Bft) S 180 0 min 0,0 UV-I 0,5 C -2,4 C 29,5 km/h (5 Bft)
13.04.2011 01:50 5,6 C 11,9 C 4,9 C 4,5 C 1,3 C 0,0 C 69 % 73 % 0 % 1018,4 hPa 0,0 l/m 12,9 km/h (3 Bft) W-SW 247 0 min 0,0 UV-I 0,4 C -2,4 C 18,3 km/h (3 Bft)
13.04.2011 01:55 5,6 C 11,8 C 4,9 C 4,5 C 1,2 C 0,0 C 69 % 73 % 0 % 1018,3 hPa 0,0 l/m 14,2 km/h (3 Bft) S 180 0 min 0,0 UV-I 0,4 C -2,8 C 14,6 km/h (3 Bft)
13.04.2011 02:00 5,6 C 11,8 C 4,9 C 4,5 C 1,3 C 0,0 C 69 % 73 % 0 % 1018,3 hPa 0,0 l/m 14,6 km/h (3 Bft) SW 225 0 min 0,0 UV-I 0,4 C -2,7 C 13,2 km/h (3 Bft)
13.04.2011 02:10 5,6 C 11,8 C 4,8 C 4,6 C 1,7 C 0,0 C 69 % 73 % 0 % 1018,3 hPa 0,0 l/m 12,7 km/h (3 Bft) N 0 0 min 0,0 UV-I 0,4 C -1,9 C 15,8 km/h (3 Bft)
13.04.2011 02:15 5,5 C 11,8 C 4,8 C 4,5 C 1,4 C 0,0 C 69 % 73 % 0 % 1018,0 hPa 0,0 l/m 13,2 km/h (3 Bft) SW 225 0 min 0,0 UV-I 0,3 C -2,4 C 18,3 km/h (3 Bft)
13.04.2011 02:20 5,5 C 11,8 C 4,8 C 4,4 C 1,0 C 0,0 C 70 % 73 % 0 % 1018,0 hPa 0,0 l/m 13,8 km/h (3 Bft) SW 225 0 min 0,0 UV-I 0,5 C -3,0 C 16,9 km/h (3 Bft)
13.04.2011 02:25 5,3 C 11,8 C 4,6 C 4,2 C 0,9 C 0,0 C 71 % 74 % 0 % 1018,0 hPa 0,0 l/m 13,5 km/h (3 Bft) SW 225 0 min 0,0 UV-I 0,5 C -3,0 C 16,9 km/h (3 Bft)
13.04.2011 02:30 5,3 C 11,8 C 4,7 C 3,8 C 0,9 C 0,0 C 71 % 74 % 0 % 1018,0 hPa 0,0 l/m 13,2 km/h (3 Bft) S-SW 202 0 min 0,0 UV-I 0,5 C -3,0 C 15,0 km/h (3 Bft)
13.04.2011 02:35 5,2 C 11,7 C 4,5 C 4,1 C 0,8 C 0,0 C 71 % 75 % 0 % 1017,9 hPa 0,0 l/m 13,4 km/h (3 Bft) SW 225 0 min 0,0 UV-I 0,4 C -3,1 C 14,8 km/h (3 Bft)
13.04.2011 02:40 5,3 C 11,7 C 4,5 C 4,1 C 0,7 C 0,0 C 71 % 75 % 0 % 1017,9 hPa 0,0 l/m 13,0 km/h (3 Bft) S 180 0 min 0,0 UV-I 0,5 C -3,2 C 19,6 km/h (3 Bft)
13.04.2011 02:45 5,2 C 11,7 C 4,4 C 4,0 C 0,6 C 0,0 C 71 % 75 % 0 % 1017,9 hPa 0,0 l/m 13,5 km/h (3 Bft) SW 225 0 min 0,0 UV-I 0,4 C -3,4 C 13,7 km/h (3 Bft)
13.04.2011 02:50 5,1 C 11,7 C 4,4 C 3,9 C 0,3 C 0,0 C 72 % 76 % 0 % 1017,9 hPa 0,0 l/m 14,3 km/h (3 Bft) W-SW 247 0 min 0,0 UV-I 0,5 C -3,9 C 15,8 km/h (3 Bft)
13.04.2011 02:55 5,1 C 11,7 C 4,3 C 3,9 C 0,4 C 0,0 C 72 % 76 % 0 % 1017,4 hPa 0,0 l/m 14,0 km/h (3 Bft) SW 225 0 min 0,0 UV-I 0,5 C -3,7 C 18,5 km/h (3 Bft)
13.04.2011 03:00 5,1 C 11,7 C 4,2 C 3,5 C 0,4 C 0,0 C 73 % 76 % 0 % 1017,4 hPa 0,0 l/m 14,0 km/h (3 Bft) S-SW 202 0 min 0,0 UV-I 0,7 C -3,7 C 16,1 km/h (3 Bft)
13.04.2011 03:10 5,1 C 11,7 C 4,5 C 4,0 C 0,7 C 0,0 C 73 % 76 % 0 % 1017,4 hPa 0,0 l/m 13,8 km/h (3 Bft) N 0 0 min 0,0 UV-I 0,7 C -3,3 C 19,2 km/h (3 Bft)
13.04.2011 03:15 5,2 C 11,7 C 4,5 C 4,1 C 1,1 C 0,0 C 73 % 76 % 0 % 1016,8 hPa 0,0 l/m 13,5 km/h (3 Bft) SW 225 0 min 0,0 UV-I 0,8 C -2,8 C 15,8 km/h (3 Bft)
13.04.2011 03:20 5,3 C 11,6 C 4,5 C 4,3 C 1,3 C 0,0 C 73 % 77 % 0 % 1016,8 hPa 0,0 l/m 13,5 km/h (3 Bft) SW 225 0 min 0,0 UV-I 0,9 C -2,5 C 9,2 km/h (2 Bft)
13.04.2011 03:25 5,3 C 11,6 C 4,7 C 4,3 C 1,4 C 0,0 C 73 % 76 % 0 % 1016,8 hPa 0,0 l/m 13,0 km/h (3 Bft) SW 225 0 min 0,0 UV-I 0,9 C -2,3 C 12,9 km/h (3 Bft)
13.04.2011 03:30 5,2 C 11,6 C 4,7 C 4,3 C 1,6 C 0,0 C 73 % 76 % 0 % 1016,8 hPa 0,0 l/m 12,9 km/h (3 Bft) SW 225 0 min 0,0 UV-I 0,8 C -2,0 C 14,5 km/h (3 Bft)
13.04.2011 03:35 5,2 C 11,6 C 4,6 C 4,3 C 1,5 C 0,0 C 73 % 76 % 0 % 1016,9 hPa 0,0 l/m 13,5 km/h (3 Bft) SW 225 0 min 0,0 UV-I 0,8 C -2,3 C 13,0 km/h (3 Bft)
13.04.2011 03:40 5,3 C 11,6 C 4,6 C 4,0 C 1,5 C 0,0 C 73 % 76 % 0 % 1016,9 hPa 0,0 l/m 13,4 km/h (3 Bft) SW 225 0 min 0,0 UV-I 0,9 C -2,3 C 18,0 km/h (3 Bft)
13.04.2011 03:45 5,3 C 11,6 C 4,7 C 4,4 C 1,8 C 0,0 C 73 % 76 % 0 % 1016,9 hPa 0,0 l/m 12,7 km/h (3 Bft) W-SW 247 0 min 0,0 UV-I 0,9 C -1,8 C 25,3 km/h (4 Bft)
13.04.2011 03:50 5,3 C 11,6 C 4,8 C 4,4 C 1,7 C 0,0 C 73 % 76 % 0 % 1016,9 hPa 0,0 l/m 13,4 km/h (3 Bft) S-SW 202 0 min 0,0 UV-I 0,9 C -2,0 C 12,7 km/h (3 Bft)
13.04.2011 03:55 5,4 C 11,6 C 4,9 C 4,5 C 1,6 C 0,0 C 73 % 76 % 0 % 1016,8 hPa 0,0 l/m 13,8 km/h (3 Bft) S-SW 202 0 min 0,0 UV-I 1,0 C -2,2 C 17,9 km/h (3 Bft)
13.04.2011 04:00 5,3 C 11,5 C 4,8 C 4,4 C 1,7 C 0,0 C 73 % 75 % 0 % 1016,8 hPa 0,0 l/m 14,0 km/h (3 Bft) SW 225 0 min 0,0 UV-I 0,9 C -2,1 C 14,2 km/h (3 Bft)
13.04.2011 04:10 5,5 C 11,5 C 4,9 C 4,6 C 1,6 C 0,0 C 72 % 75 % 0 % 1016,8 hPa 0,0 l/m 14,8 km/h (3 Bft) N 0 0 min 0,0 UV-I 0,9 C -2,4 C 16,7 km/h (3 Bft)
13.04.2011 04:15 5,5 C 11,5 C 4,9 C 4,2 C 1,6 C 0,0 C 72 % 75 % 0 % 1016,7 hPa 0,0 l/m 15,9 km/h (3 Bft) SW 225 0 min 0,0 UV-I 0,9 C -2,6 C 31,5 km/h (5 Bft)
13.04.2011 04:20 5,5 C 11,5 C 5,0 C 4,6 C 1,7 C 0,0 C 72 % 74 % 0 % 1016,7 hPa 0,0 l/m 15,3 km/h (3 Bft) SW 225 0 min 0,0 UV-I 0,9 C -2,4 C 14,5 km/h (3 Bft)
13.04.2011 04:25 5,4 C 11,5 C 5,1 C 4,6 C 1,9 C 0,0 C 72 % 74 % 0 % 1016,7 hPa 0,0 l/m 14,6 km/h (3 Bft) SW 225 0 min 0,0 UV-I 0,8 C -2,0 C 16,4 km/h (3 Bft)
13.04.2011 04:30 5,5 C 11,5 C 5,1 C 4,6 C 1,8 C 0,0 C 72 % 74 % 0 % 1016,7 hPa 0,0 l/m 15,1 km/h (3 Bft) S-SW 202 0 min 0,0 UV-I 0,9 C -2,2 C 19,0 km/h (3 Bft)
13.04.2011 04:35 5,5 C 11,5 C 5,1 C 4,6 C 1,9 C 0,0 C 71 % 74 % 0 % 1016,4 hPa 0,0 l/m 14,6 km/h (3 Bft) W-SW 247 0 min 0,0 UV-I 0,7 C -2,0 C 23,7 km/h (4 Bft)
13.04.2011 04:40 5,5 C 11,4 C 5,1 C 4,3 C 1,9 C 0,0 C 71 % 74 % 0 % 1016,4 hPa 0,0 l/m 14,8 km/h (3 Bft) S-SW 202 0 min 0,0 UV-I 0,7 C -2,0 C 15,1 km/h (3 Bft)
13.04.2011 04:45 5,5 C 11,4 C 5,0 C 4,6 C 1,8 C 0,0 C 71 % 74 % 0 % 1016,4 hPa 0,0 l/m 15,6 km/h (3 Bft) SW 225 0 min 0,0 UV-I 0,7 C -2,3 C 13,5 km/h (3 Bft)
13.04.2011 04:50 5,5 C 11,4 C 5,1 C 4,3 C 1,8 C 0,0 C 71 % 74 % 0 % 1016,4 hPa 0,0 l/m 15,6 km/h (3 Bft) W-SW 247 0 min 0,0 UV-I 0,7 C -2,3 C 20,3 km/h (4 Bft)
13.04.2011 04:55 5,5 C 11,4 C 5,1 C 4,6 C 1,5 C 0,0 C 71 % 73 % 0 % 1016,2 hPa 0,0 l/m 17,4 km/h (3 Bft) SW 225 0 min 0,0 UV-I 0,7 C -3,0 C 35,1 km/h (5 Bft)
13.04.2011 05:00 5,5 C 11,4 C 5,1 C 4,6 C 1,6 C 0,0 C 71 % 73 % 0 % 1016,2 hPa 0,0 l/m 16,9 km/h (3 Bft) SW 225 0 min 0,0 UV-I 0,7 C -2,8 C 15,3 km/h (3 Bft)
13.04.2011 05:10 5,5 C 11,4 C 5,1 C 4,6 C 1,4 C 0,0 C 72 % 74 % 0 % 1016,2 hPa 0,0 l/m 18,2 km/h (3 Bft) N 0 0 min 0,0 UV-I 0,9 C -3,2 C 26,6 km/h (4 Bft)
13.04.2011 05:15 5,5 C 11,4 C 5,1 C 4,5 C 1,2 C 0,0 C 72 % 75 % 0 % 1015,9 hPa 0,0 l/m 17,9 km/h (3 Bft) SW 225 0 min 0,0 UV-I 0,9 C -3,4 C 14,0 km/h (3 Bft)
13.04.2011 05:20 5,5 C 11,4 C 5,1 C 4,4 C 1,0 C 0,0 C 72 % 75 % 0 % 1015,9 hPa 0,0 l/m 16,6 km/h (3 Bft) SW 225 0 min 0,0 UV-I 0,9 C -3,5 C 12,4 km/h (3 Bft)
13.04.2011 05:25 5,5 C 11,4 C 5,1 C 4,5 C 1,4 C 0,0 C 72 % 75 % 0 % 1015,9 hPa 0,0 l/m 15,1 km/h (3 Bft) SW 225 0 min 0,0 UV-I 0,9 C -2,7 C 14,6 km/h (3 Bft)
13.04.2011 05:30 5,5 C 11,4 C 5,1 C 4,5 C 1,6 C 0,0 C 72 % 75 % 0 % 1015,9 hPa 0,0 l/m 14,2 km/h (3 Bft) SW 225 0 min 0,0 UV-I 0,9 C -2,3 C 23,7 km/h (4 Bft)
13.04.2011 05:35 5,5 C 11,3 C 5,1 C 4,6 C 1,8 C 0,0 C 72 % 75 % 0 % 1015,8 hPa 0,0 l/m 14,8 km/h (3 Bft) W-SW 247 0 min 0,0 UV-I 0,9 C -2,2 C 14,3 km/h (3 Bft)
13.04.2011 05:40 5,5 C 11,3 C 5,1 C 4,6 C 1,9 C 0,0 C 72 % 74 % 0 % 1015,8 hPa 0,0 l/m 15,0 km/h (3 Bft) SW 225 0 min 0,0 UV-I 0,9 C -2,1 C 11,7 km/h (2 Bft)
13.04.2011 05:45 5,6 C 11,3 C 5,1 C 4,4 C 1,9 C 0,0 C 72 % 74 % 0 % 1015,8 hPa 0,0 l/m 14,5 km/h (3 Bft) SW 225 0 min 0,0 UV-I 1,0 C -2,0 C 14,3 km/h (3 Bft)
13.04.2011 05:50 5,6 C 11,3 C 5,1 C 4,4 C 1,9 C 0,0 C 72 % 74 % 0 % 1015,8 hPa 0,0 l/m 14,6 km/h (3 Bft) S-SW 202 0 min 0,0 UV-I 1,0 C -2,0 C 18,0 km/h (3 Bft)
13.04.2011 05:55 5,6 C 11,3 C 5,2 C 4,8 C 2,1 C 0,0 C 72 % 74 % 0 % 1016,2 hPa 0,0 l/m 14,3 km/h (3 Bft) W-SW 247 0 min 0,0 UV-I 1,0 C -1,7 C 13,7 km/h (3 Bft)
13.04.2011 06:00 5,6 C 11,3 C 5,2 C 4,8 C 1,9 C 0,0 C 72 % 74 % 0 % 1016,2 hPa 0,0 l/m 15,4 km/h (3 Bft) W-SW 247 0 min 0,0 UV-I 1,0 C -2,1 C 24,1 km/h (4 Bft)
13.04.2011 06:09 5,6 C 11,3 C 5,2 C 4,4 C 1,9 C 0,0 C 72 % 73 % 0 % 1016,2 hPa 0,0 l/m 15,4 km/h (3 Bft) N 0 0 min 0,0 UV-I 1,0 C -2,1 C 38,9 km/h (6 Bft)
13.04.2011 06:15 5,6 C 11,3 C 5,2 C 4,7 C 2,0 C 0,0 C 71 % 73 % 0 % 1015,6 hPa 0,0 l/m 15,3 km/h (3 Bft) S 180 0 min 0,0 UV-I 0,8 C -2,0 C 24,9 km/h (4 Bft)
13.04.2011 06:20 5,7 C 11,3 C 5,3 C 4,8 C 1,9 C 0,0 C 72 % 75 % 0 % 1015,6 hPa 0,0 l/m 15,8 km/h (3 Bft) W-SW 247 0 min 0,0 UV-I 1,1 C -2,2 C 25,3 km/h (4 Bft)
13.04.2011 06:25 5,5 C 11,4 C 4,6 C 4,4 C 0,5 C 0,0 C 75 % 80 % 0 % 1015,6 hPa 0,0 l/m 17,4 km/h (3 Bft) S 180 0 min 0,0 UV-I 1,4 C -4,2 C 31,2 km/h (5 Bft)
13.04.2011 06:30 5,5 C 11,4 C 4,4 C 4,2 C 0,3 C 0,0 C 75 % 81 % 0 % 1015,6 hPa 0,0 l/m 16,4 km/h (3 Bft) SW 225 0 min 0,0 UV-I 1,4 C -4,3 C 26,1 km/h (4 Bft)
13.04.2011 06:35 5,3 C 11,3 C 4,4 C 4,0 C 0,2 C 0,0 C 76 % 81 % 0 % 1015,2 hPa 0,0 l/m 15,6 km/h (3 Bft) S 180 0 min 0,0 UV-I 1,4 C -4,3 C 15,6 km/h (3 Bft)
13.04.2011 06:40 5,3 C 11,3 C 4,4 C 3,6 C 0,2 C 0,0 C 76 % 81 % 0 % 1015,2 hPa 0,0 l/m 15,3 km/h (3 Bft) SW 225 0 min 0,0 UV-I 1,4 C -4,2 C 17,2 km/h (3 Bft)
13.04.2011 06:45 5,2 C 11,3 C 4,4 C 4,0 C 0,3 C 0,0 C 76 % 81 % 0 % 1015,2 hPa 0,0 l/m 15,8 km/h (3 Bft) SW 225 0 min 0,0 UV-I 1,3 C -4,2 C 13,2 km/h (3 Bft)
13.04.2011 06:50 5,2 C 11,3 C 4,5 C 4,0 C 0,7 C 0,0 C 76 % 81 % 0 % 1015,2 hPa 0,0 l/m 15,0 km/h (3 Bft) SW 225 0 min 0,0 UV-I 1,3 C -3,6 C 17,5 km/h (3 Bft)
13.04.2011 06:55 5,2 C 11,3 C 4,5 C 3,7 C 0,7 C 0,0 C 75 % 80 % 0 % 1015,3 hPa 0,0 l/m 15,8 km/h (3 Bft) SW 225 0 min 0,0 UV-I 1,1 C -3,7 C 23,7 km/h (4 Bft)
13.04.2011 07:00 5,2 C 11,1 C 4,5 C 4,1 C 0,5 C 0,0 C 75 % 80 % 0 % 1015,3 hPa 0,0 l/m 16,9 km/h (3 Bft) SW 225 0 min 0,0 UV-I 1,1 C -4,1 C 26,6 km/h (4 Bft)
13.04.2011 07:09 5,3 C 11,1 C 4,7 C 4,2 C 1,2 C 0,0 C 76 % 80 % 0 % 1015,3 hPa 0,0 l/m 14,2 km/h (3 Bft) N 0 0 min 0,0 UV-I 1,4 C -2,8 C 15,0 km/h (3 Bft)
13.04.2011 07:15 5,3 C 11,1 C 4,8 C 4,3 C 1,4 C 0,0 C 75 % 79 % 0 % 1015,2 hPa 0,0 l/m 13,7 km/h (3 Bft) SW 225 0 min 0,0 UV-I 1,2 C -2,4 C 21,4 km/h (4 Bft)
13.04.2011 07:20 5,4 C 11,1 C 4,8 C 4,1 C 1,4 C 0,0 C 75 % 79 % 0 % 1015,2 hPa 0,0 l/m 15,3 km/h (3 Bft) SW 225 0 min 0,0 UV-I 1,3 C -2,7 C 17,4 km/h (3 Bft)
13.04.2011 07:25 5,5 C 11,1 C 4,8 C 4,5 C 1,1 C 0,0 C 75 % 79 % 0 % 1015,2 hPa 0,0 l/m 17,2 km/h (3 Bft) W-SW 247 0 min 0,0 UV-I 1,4 C -3,4 C 19,5 km/h (3 Bft)
13.04.2011 07:30 5,4 C 11,1 C 4,8 C 4,4 C 1,4 C 0,0 C 75 % 79 % 0 % 1015,2 hPa 0,0 l/m 16,4 km/h (3 Bft) SW 225 0 min 0,0 UV-I 1,3 C -2,9 C 17,5 km/h (3 Bft)
13.04.2011 07:35 5,5 C 11,1 C 5,0 C 4,5 C 1,3 C 0,0 C 75 % 78 % 0 % 1015,1 hPa 0,0 l/m 18,0 km/h (3 Bft) SW 225 0 min 0,0 UV-I 1,4 C -3,3 C 31,2 km/h (5 Bft)
13.04.2011 07:40 5,5 C 11,1 C 4,9 C 4,5 C 1,4 C 0,0 C 76 % 80 % 0 % 1015,1 hPa 0,0 l/m 17,4 km/h (3 Bft) S-SW 202 0 min 0,0 UV-I 1,6 C -3,1 C 20,4 km/h (4 Bft)
13.04.2011 07:45 5,5 C 11,1 C 4,8 C 4,1 C 1,4 C 0,0 C 76 % 80 % 0 % 1015,1 hPa 0,0 l/m 14,8 km/h (3 Bft) SW 225 0 min 0,0 UV-I 1,6 C -2,7 C 14,5 km/h (3 Bft)
13.04.2011 07:50 5,5 C 11,1 C 4,8 C 4,5 C 1,6 C 0,0 C 76 % 80 % 0 % 1015,1 hPa 0,0 l/m 14,0 km/h (3 Bft) S 180 0 min 0,0 UV-I 1,6 C -2,3 C 20,3 km/h (4 Bft)
13.04.2011 07:55 5,5 C 11,0 C 4,9 C 4,5 C 1,4 C 0,0 C 76 % 80 % 0 % 1014,7 hPa 0,0 l/m 16,6 km/h (3 Bft) SW 225 0 min 0,0 UV-I 1,6 C -3,0 C 18,0 km/h (3 Bft)
13.04.2011 08:00 5,6 C 11,0 C 4,9 C 4,6 C 1,7 C 0,0 C 76 % 80 % 0 % 1014,7 hPa 0,0 l/m 15,4 km/h (3 Bft) W-SW 247 0 min 0,0 UV-I 1,7 C -2,4 C 10,1 km/h (2 Bft)
13.04.2011 08:10 5,6 C 11,0 C 5,0 C 4,3 C 1,7 C 0,0 C 75 % 79 % 0 % 1014,7 hPa 0,0 l/m 16,4 km/h (3 Bft) N 0 0 min 0,0 UV-I 1,5 C -2,6 C 20,0 km/h (4 Bft)
13.04.2011 08:15 5,6 C 11,0 C 5,1 C 4,7 C 1,6 C 0,0 C 75 % 79 % 0 % 1014,8 hPa 0,0 l/m 17,2 km/h (3 Bft) S-SW 202 0 min 0,0 UV-I 1,5 C -2,8 C 16,3 km/h (3 Bft)
13.04.2011 08:20 5,6 C 11,0 C 5,1 C 4,6 C 1,3 C 0,0 C 75 % 79 % 0 % 1014,8 hPa 0,0 l/m 18,0 km/h (3 Bft) S-SW 202 0 min 0,0 UV-I 1,5 C -3,3 C 22,5 km/h (4 Bft)
13.04.2011 08:25 5,5 C 11,1 C 4,8 C 4,4 C 0,8 C 0,0 C 76 % 80 % 0 % 1014,8 hPa 0,0 l/m 19,5 km/h (3 Bft) SW 225 0 min 0,0 UV-I 1,6 C -4,2 C 16,4 km/h (3 Bft)
13.04.2011 08:30 5,5 C 11,1 C 4,8 C 4,3 C 0,6 C 0,0 C 77 % 81 % 0 % 1014,8 hPa 0,0 l/m 20,0 km/h (4 Bft) S 180 0 min 0,0 UV-I 1,8 C -4,5 C 25,7 km/h (4 Bft)
13.04.2011 08:35 5,3 C 11,1 C 4,5 C 4,1 C 0,4 C 0,0 C 77 % 83 % 0 % 1014,7 hPa 0,0 l/m 18,7 km/h (3 Bft) S 180 0 min 0,0 UV-I 1,6 C -4,5 C 14,5 km/h (3 Bft)
13.04.2011 08:40 5,4 C 11,1 C 4,4 C 4,2 C 0,3 C 0,0 C 78 % 84 % 0 % 1014,7 hPa 0,0 l/m 18,7 km/h (3 Bft) SW 225 0 min 0,4 UV-I 1,9 C -4,7 C 19,8 km/h (3 Bft)
13.04.2011 08:45 5,5 C 11,3 C 4,4 C 4,2 C 0,7 C 0,0 C 79 % 84 % 0 % 1014,7 hPa 0,0 l/m 15,8 km/h (3 Bft) SW 225 0 min 0,1 UV-I 2,2 C -3,7 C 11,4 km/h (2 Bft)
13.04.2011 08:50 5,5 C 11,3 C 4,4 C 4,3 C 0,9 C 0,0 C 78 % 84 % 0 % 1014,7 hPa 0,0 l/m 15,1 km/h (3 Bft) N 0 0 min 0,1 UV-I 2,0 C -3,3 C 16,4 km/h (3 Bft)
13.04.2011 08:55 5,5 C 11,3 C 4,5 C 4,0 C 0,9 C 0,0 C 79 % 85 % 0 % 1014,3 hPa 0,0 l/m 16,4 km/h (3 Bft) SW 225 0 min 0,1 UV-I 2,2 C -3,6 C 29,1 km/h (5 Bft)
13.04.2011 09:00 5,5 C 11,1 C 4,5 C 4,3 C 0,6 C 0,0 C 79 % 85 % 0 % 1014,3 hPa 0,0 l/m 18,7 km/h (3 Bft) SW 225 0 min 0,1 UV-I 2,2 C -4,3 C 24,8 km/h (4 Bft)
13.04.2011 09:10 5,5 C 11,1 C 4,4 C 4,3 C 0,9 C 0,0 C 79 % 85 % 0 % 1014,3 hPa 0,0 l/m 17,5 km/h (3 Bft) N 0 0 min 0,1 UV-I 2,2 C -3,7 C 29,3 km/h (5 Bft)
13.04.2011 09:25 5,5 C 11,1 C 4,5 C 4,0 C 1,0 C 0,0 C 80 % 86 % 0 % 1014,3 hPa 0,0 l/m 15,8 km/h (3 Bft) SW 225 0 min 0,1 UV-I 2,3 C -3,3 C 12,3 km/h (3 Bft)
13.04.2011 09:30 5,5 C 11,3 C 4,4 C 4,0 C 1,0 C 0,0 C 80 % 86 % 0 % 1014,3 hPa 0,0 l/m 15,8 km/h (3 Bft) SW 225 0 min 0,1 UV-I 2,3 C -3,3 C 23,8 km/h (4 Bft)
13.04.2011 09:35 5,5 C 11,1 C 4,4 C 4,3 C 0,7 C 0,0 C 80 % 86 % 0 % 1014,3 hPa 0,7 l/m 17,1 km/h (3 Bft) SW 225 0 min 0,1 UV-I 2,3 C -3,9 C 35,4 km/h (5 Bft)
13.04.2011 09:40 5,5 C 11,1 C 4,4 C 4,3 C 0,6 C 0,0 C 80 % 86 % 0 % 1014,2 hPa 0,0 l/m 17,5 km/h (3 Bft) W-SW 247 0 min 0,1 UV-I 2,3 C -4,1 C 18,7 km/h (3 Bft)
13.04.2011 09:45 5,5 C 11,1 C 4,5 C 4,3 C 0,8 C 0,0 C 80 % 86 % 0 % 1014,2 hPa 0,0 l/m 17,2 km/h (3 Bft) SW 225 0 min 0,1 UV-I 2,3 C -3,8 C 23,2 km/h (4 Bft)
13.04.2011 09:50 5,5 C 11,1 C 4,3 C 4,4 C 1,1 C 0,0 C 81 % 87 % 0 % 1014,2 hPa 0,0 l/m 15,1 km/h (3 Bft) S-SW 202 0 min 0,1 UV-I 2,5 C -3,1 C 14,6 km/h (3 Bft)
13.04.2011 09:55 5,4 C 11,1 C 4,4 C 4,3 C 1,2 C 0,0 C 81 % 87 % 0 % 1014,2 hPa 0,0 l/m 14,2 km/h (3 Bft) N 0 0 min 0,1 UV-I 2,4 C -2,8 C 21,1 km/h (4 Bft)
13.04.2011 10:00 5,2 C 11,3 C 4,3 C 4,2 C 0,9 C 0,0 C 81 % 87 % 0 % 1014,2 hPa 0,0 l/m 14,2 km/h (3 Bft) SW 225 0 min 0,1 UV-I 2,2 C -3,2 C 23,7 km/h (4 Bft)
13.04.2011 10:10 5,2 C 11,3 C 4,1 C 4,0 C 0,3 C 0,0 C 82 % 89 % 0 % 1014,2 hPa 0,0 l/m 15,3 km/h (3 Bft) N 0 0 min 0,1 UV-I 2,4 C -4,1 C 22,7 km/h (4 Bft)
13.04.2011 10:15 5,1 C 11,3 C 4,0 C 3,9 C 0,2 C 0,0 C 82 % 89 % 0 % 1014,3 hPa 0,0 l/m 16,4 km/h (3 Bft) SW 225 0 min 0,1 UV-I 2,3 C -4,4 C 40,5 km/h (6 Bft)
13.04.2011 10:20 5,1 C 11,3 C 3,9 C 3,5 C 0,3 C 0,0 C 82 % 90 % 0 % 1014,3 hPa 0,0 l/m 16,3 km/h (3 Bft) W-SW 247 0 min 0,1 UV-I 2,3 C -4,3 C 10,1 km/h (2 Bft)
13.04.2011 10:25 5,1 C 11,3 C 3,9 C 3,9 C 0,4 C 0,0 C 82 % 90 % 0 % 1014,3 hPa 0,7 l/m 14,6 km/h (3 Bft) W 270 0 min 0,1 UV-I 2,3 C -3,8 C 13,5 km/h (3 Bft)
13.04.2011 10:30 5,2 C 11,3 C 3,9 C 4,1 C 1,0 C 0,0 C 82 % 90 % 0 % 1014,3 hPa 1,0 l/m 11,6 km/h (2 Bft) SW 225 0 min 0,1 UV-I 2,4 C -2,5 C 10,6 km/h (2 Bft)
13.04.2011 10:35 5,1 C 24,1 C 3,8 C 4,1 C 1,2 C 0,0 C 83 % 90 % 0 % 1014,3 hPa 0,0 l/m 10,6 km/h (2 Bft) W-SW 247 0 min 0,1 UV-I 2,5 C -2,0 C 11,3 km/h (2 Bft)
13.04.2011 10:40 5,0 C 11,3 C 3,9 C 4,0 C 0,9 C 0,0 C 83 % 90 % 0 % 1014,3 hPa 0,0 l/m 11,3 km/h (2 Bft) W-SW 247 0 min 0,1 UV-I 2,4 C -2,6 C 19,3 km/h (3 Bft)
13.04.2011 10:45 5,1 C 11,3 C 3,9 C 4,1 C 1,3 C 0,0 C 83 % 91 % 0 % 1014,3 hPa 0,0 l/m 9,7 km/h (2 Bft) W-SW 247 0 min 0,1 UV-I 2,5 C -1,7 C 14,8 km/h (3 Bft)
13.04.2011 10:50 5,0 C 11,3 C 3,9 C 3,8 C 1,3 C 0,0 C 84 % 91 % 0 % 1014,3 hPa 0,7 l/m 9,5 km/h (2 Bft) S-SW 202 0 min 0,1 UV-I 2,5 C -1,6 C 12,7 km/h (3 Bft)
13.04.2011 10:55 5,0 C 11,3 C 3,9 C 4,0 C 0,9 C 0,0 C 84 % 91 % 0 % 1014,8 hPa 0,0 l/m 11,4 km/h (2 Bft) W-SW 247 0 min 0,2 UV-I 2,5 C -2,6 C 22,9 km/h (4 Bft)
13.04.2011 11:00 5,1 C 11,3 C 3,6 C 4,0 C 0,8 C 0,0 C 84 % 91 % 0 % 1014,8 hPa 0,0 l/m 11,9 km/h (2 Bft) NO 45 0 min 0,2 UV-I 2,6 C -2,8 C 13,2 km/h (3 Bft)
13.04.2011 11:10 4,9 C 11,3 C 3,6 C 3,8 C 0,6 C 0,0 C 83 % 91 % 0 % 1014,8 hPa 0,0 l/m 11,7 km/h (2 Bft) N 0 0 min 0,2 UV-I 2,3 C -3,0 C 21,6 km/h (4 Bft)
13.04.2011 11:15 4,9 C 11,1 C 3,5 C 3,8 C 0,2 C 0,0 C 83 % 91 % 0 % 1014,8 hPa 0,7 l/m 14,0 km/h (3 Bft) SW 225 0 min 0,2 UV-I 2,3 C -4,0 C 19,8 km/h (3 Bft)
13.04.2011 11:20 4,8 C 11,1 C 3,6 C 3,6 C 0,0 C 0,0 C 84 % 92 % 0 % 1014,8 hPa 0,0 l/m 14,5 km/h (3 Bft) SW 225 0 min 0,2 UV-I 2,3 C -4,3 C 20,8 km/h (4 Bft)
13.04.2011 11:25 4,9 C 11,1 C 3,6 C 3,7 C 0,1 C 0,0 C 84 % 92 % 0 % 1014,8 hPa 0,0 l/m 14,3 km/h (3 Bft) SW 225 0 min 0,2 UV-I 2,4 C -4,2 C 17,4 km/h (3 Bft)
13.04.2011 11:30 4,8 C 11,1 C 3,5 C 3,6 C 0,3 C 0,0 C 84 % 92 % 0 % 1014,8 hPa 0,0 l/m 13,2 km/h (3 Bft) SW 225 0 min 0,2 UV-I 2,3 C -3,7 C 10,6 km/h (2 Bft)
13.04.2011 11:35 4,8 C 11,1 C 3,6 C 3,7 C 0,8 C 0,0 C 84 % 92 % 0 % 1014,9 hPa 0,0 l/m 10,9 km/h (2 Bft) S-SW 202 0 min 0,3 UV-I 2,3 C -2,6 C 8,0 km/h (2 Bft)
13.04.2011 11:40 4,8 C 11,1 C 3,6 C 3,9 C 1,4 C 0,0 C 85 % 92 % 0 % 1014,9 hPa 0,7 l/m 9,0 km/h (2 Bft) SW 225 0 min 0,3 UV-I 2,5 C -1,4 C 17,5 km/h (3 Bft)
13.04.2011 11:45 4,9 C 11,1 C 3,6 C 3,9 C 0,8 C 0,0 C 85 % 92 % 0 % 1014,9 hPa 0,0 l/m 11,4 km/h (2 Bft) SW 225 0 min 0,2 UV-I 2,6 C -2,7 C 12,2 km/h (2 Bft)
13.04.2011 11:50 4,9 C 11,1 C 3,6 C 3,8 C 0,4 C 0,0 C 85 % 92 % 0 % 1014,9 hPa 0,0 l/m 13,2 km/h (3 Bft) S-SW 202 0 min 0,2 UV-I 2,6 C -3,6 C 19,2 km/h (3 Bft)
13.04.2011 11:55 4,8 C 11,1 C 3,6 C 3,3 C 0,4 C 0,0 C 85 % 92 % 0 % 1014,2 hPa 0,0 l/m 14,0 km/h (3 Bft) S 180 0 min 0,3 UV-I 2,5 C -3,7 C 16,3 km/h (3 Bft)
13.04.2011 12:00 4,8 C 11,1 C 3,6 C 3,7 C 0,2 C 0,0 C 85 % 92 % 0 % 1014,2 hPa 0,0 l/m 14,3 km/h (3 Bft) SW 225 0 min 0,3 UV-I 2,5 C -4,0 C 14,0 km/h (3 Bft)
13.04.2011 12:10 4,8 C 11,0 C 3,6 C 3,7 C 0,4 C 0,0 C 85 % 92 % 0 % 1014,2 hPa 0,0 l/m 13,7 km/h (3 Bft) N 0 0 min 0,2 UV-I 2,5 C -3,7 C 15,0 km/h (3 Bft)
13.04.2011 12:15 4,7 C 11,0 C 3,6 C 3,7 C 0,6 C 0,0 C 85 % 92 % 0 % 1014,8 hPa 0,7 l/m 12,9 km/h (3 Bft) SW 225 0 min 0,3 UV-I 2,4 C -3,3 C 9,8 km/h (2 Bft)
13.04.2011 12:20 4,7 C 11,0 C 3,6 C 3,7 C 0,8 C 0,0 C 85 % 93 % 0 % 1014,8 hPa 0,0 l/m 11,7 km/h (2 Bft) SW 225 0 min 0,3 UV-I 2,4 C -2,8 C 11,9 km/h (2 Bft)
13.04.2011 12:25 4,7 C 11,0 C 3,5 C 3,4 C 0,8 C 0,0 C 86 % 93 % 0 % 1014,8 hPa 0,7 l/m 11,4 km/h (2 Bft) SW 225 0 min 0,2 UV-I 2,6 C -2,7 C 16,4 km/h (3 Bft)
13.04.2011 12:30 4,6 C 11,0 C 3,4 C 3,6 C 0,6 C 0,0 C 86 % 93 % 0 % 1014,8 hPa 0,0 l/m 11,9 km/h (2 Bft) SW 225 0 min 0,2 UV-I 2,5 C -3,1 C 11,6 km/h (2 Bft)
13.04.2011 12:35 4,7 C 11,0 C 3,5 C 3,7 C 0,9 C 0,0 C 86 % 93 % 0 % 1015,1 hPa 0,0 l/m 10,9 km/h (2 Bft) S-SW 202 0 min 0,3 UV-I 2,6 C -2,5 C 11,3 km/h (2 Bft)
13.04.2011 12:40 4,7 C 11,0 C 3,6 C 3,8 C 1,1 C 0,0 C 86 % 93 % 0 % 1015,1 hPa 0,7 l/m 10,3 km/h (2 Bft) W-SW 247 0 min 0,3 UV-I 2,6 C -2,1 C 15,1 km/h (3 Bft)
13.04.2011 12:45 4,8 C 11,0 C 3,6 C 3,6 C 1,1 C 0,0 C 86 % 93 % 0 % 1015,1 hPa 0,0 l/m 10,3 km/h (2 Bft) W 270 0 min 0,3 UV-I 2,7 C -2,1 C 16,6 km/h (3 Bft)
13.04.2011 12:50 4,8 C 11,0 C 3,6 C 3,9 C 1,2 C 0,0 C 86 % 93 % 0 % 1015,1 hPa 0,0 l/m 10,0 km/h (2 Bft) S-SW 202 0 min 0,3 UV-I 2,7 C -1,9 C 13,8 km/h (3 Bft)
13.04.2011 12:55 4,8 C 10,9 C 3,7 C 3,9 C 1,4 C 0,0 C 86 % 93 % 0 % 1015,1 hPa 0,0 l/m 9,8 km/h (2 Bft) SW 225 0 min 0,3 UV-I 2,7 C -1,6 C 7,6 km/h (2 Bft)
13.04.2011 13:00 4,9 C 10,9 C 3,9 C 4,1 C 1,8 C 0,0 C 86 % 93 % 0 % 1015,1 hPa 0,0 l/m 9,2 km/h (2 Bft) W-SW 247 0 min 0,3 UV-I 2,8 C -1,0 C 9,7 km/h (2 Bft)
13.04.2011 13:10 5,1 C 10,9 C 4,0 C 4,3 C 2,1 C 0,0 C 86 % 93 % 0 % 1015,1 hPa 0,7 l/m 9,2 km/h (2 Bft) N 0 0 min 0,3 UV-I 3,0 C -0,6 C 9,2 km/h (2 Bft)
13.04.2011 13:15 5,2 C 10,9 C 4,1 C 4,2 C 2,1 C 0,0 C 86 % 93 % 0 % 1015,1 hPa 0,0 l/m 10,0 km/h (2 Bft) S-SW 202 0 min 0,4 UV-I 3,1 C -0,8 C 11,4 km/h (2 Bft)
13.04.2011 13:20 5,2 C 10,9 C 4,0 C 4,2 C 2,1 C 0,0 C 86 % 93 % 0 % 1015,1 hPa 0,0 l/m 10,1 km/h (2 Bft) SW 225 0 min 0,4 UV-I 3,1 C -0,8 C 14,6 km/h (3 Bft)
13.04.2011 13:25 5,2 C 10,9 C 4,1 C 4,5 C 2,2 C 0,0 C 86 % 93 % 0 % 1015,1 hPa 0,0 l/m 9,7 km/h (2 Bft) S-SW 202 0 min 0,2 UV-I 3,1 C -0,6 C 8,0 km/h (2 Bft)
13.04.2011 13:30 5,2 C 10,9 C 4,1 C 4,5 C 2,4 C 0,0 C 86 % 93 % 0 % 1015,1 hPa 0,0 l/m 8,7 km/h (2 Bft) S-SW 202 0 min 0,2 UV-I 3,1 C -0,1 C 9,5 km/h (2 Bft)
13.04.2011 13:35 5,2 C 10,9 C 4,3 C 4,5 C 2,6 C 0,0 C 86 % 93 % 0 % 1015,1 hPa 0,0 l/m 8,0 km/h (2 Bft) S 180 0 min 0,3 UV-I 3,1 C 0,3 C 7,9 km/h (2 Bft)
13.04.2011 13:40 5,2 C 10,9 C 4,3 C 4,3 C 2,6 C 0,0 C 86 % 93 % 0 % 1015,1 hPa 0,7 l/m 7,7 km/h (2 Bft) W-SW 247 0 min 0,3 UV-I 3,1 C 0,4 C 16,7 km/h (3 Bft)
13.04.2011 13:45 5,2 C 10,9 C 4,3 C 4,5 C 2,3 C 0,0 C 86 % 93 % 0 % 1015,1 hPa 0,0 l/m 9,0 km/h (2 Bft) SW 225 0 min 0,2 UV-I 3,1 C -0,3 C 12,1 km/h (2 Bft)
13.04.2011 13:50 5,3 C 10,9 C 4,3 C 4,5 C 2,2 C 0,0 C 86 % 93 % 0 % 1015,1 hPa 0,0 l/m 9,7 km/h (2 Bft) W-SW 247 0 min 0,2 UV-I 3,2 C -0,6 C 12,1 km/h (2 Bft)
13.04.2011 13:55 5,5 C 10,9 C 4,4 C 4,7 C 2,8 C 0,0 C 86 % 93 % 0 % 1015,3 hPa 0,0 l/m 7,7 km/h (2 Bft) SW 225 0 min 0,3 UV-I 3,3 C 0,6 C 7,6 km/h (2 Bft)
13.04.2011 14:00 5,4 C 10,9 C 4,4 C 4,5 C 2,8 C 0,0 C 86 % 93 % 0 % 1015,3 hPa 0,0 l/m 8,4 km/h (2 Bft) S-SW 202 0 min 0,3 UV-I 3,3 C 0,4 C 17,7 km/h (3 Bft)
13.04.2011 14:10 5,4 C 10,8 C 4,4 C 4,6 C 1,9 C 0,0 C 86 % 93 % 0 % 1015,3 hPa 0,7 l/m 11,3 km/h (2 Bft) N 0 0 min 0,2 UV-I 3,3 C -1,3 C 12,2 km/h (2 Bft)
13.04.2011 14:15 5,5 C 10,8 C 4,5 C 4,7 C 2,6 C 0,0 C 86 % 93 % 0 % 1015,4 hPa 0,0 l/m 10,0 km/h (2 Bft) W-SW 247 0 min 0,4 UV-I 3,3 C -0,2 C 19,0 km/h (3 Bft)
13.04.2011 14:20 5,7 C 10,8 C 4,5 C 4,9 C 2,7 C 0,0 C 86 % 93 % 0 % 1015,4 hPa 0,0 l/m 10,0 km/h (2 Bft) W-SW 247 0 min 0,4 UV-I 3,5 C -0,1 C 8,4 km/h (2 Bft)
13.04.2011 14:25 5,6 C 10,8 C 4,5 C 4,9 C 2,9 C 0,0 C 85 % 93 % 0 % 1015,4 hPa 0,0 l/m 9,0 km/h (2 Bft) S-SW 202 0 min 0,3 UV-I 3,3 C 0,4 C 11,7 km/h (2 Bft)
13.04.2011 14:30 5,6 C 10,8 C 4,5 C 4,8 C 3,2 C 0,0 C 86 % 93 % 0 % 1015,4 hPa 0,0 l/m 7,4 km/h (2 Bft) SW 225 0 min 0,3 UV-I 3,4 C 1,2 C 7,6 km/h (2 Bft)
13.04.2011 14:35 5,7 C 10,8 C 4,5 C 4,8 C 3,1 C 0,0 C 86 % 93 % 0 % 1015,2 hPa 0,0 l/m 7,6 km/h (2 Bft) SW 225 0 min 0,3 UV-I 3,5 C 1,0 C 7,4 km/h (2 Bft)
13.04.2011 14:40 5,5 C 10,8 C 4,4 C 4,8 C 2,7 C 0,0 C 86 % 93 % 0 % 1015,2 hPa 0,0 l/m 8,7 km/h (2 Bft) SW 225 0 min 0,3 UV-I 3,3 C 0,2 C 18,3 km/h (3 Bft)
13.04.2011 14:45 5,6 C 10,8 C 4,5 C 4,9 C 2,8 C 0,0 C 86 % 93 % 0 % 1015,2 hPa 0,7 l/m 8,4 km/h (2 Bft) NW 315 0 min 0,2 UV-I 3,4 C 0,4 C 14,2 km/h (3 Bft)
13.04.2011 14:50 5,7 C 10,8 C 4,4 C 4,9 C 2,6 C 0,0 C 85 % 93 % 0 % 1015,2 hPa 0,0 l/m 9,2 km/h (2 Bft) SW 225 0 min 0,2 UV-I 3,4 C -0,0 C 5,8 km/h (2 Bft)
13.04.2011 14:55 5,6 C 10,8 C 4,5 C 4,6 C 2,6 C 0,0 C 85 % 93 % 0 % 1015,5 hPa 0,0 l/m 8,9 km/h (2 Bft) W-SW 247 0 min 0,3 UV-I 3,3 C 0,1 C 7,6 km/h (2 Bft)
13.04.2011 15:00 5,7 C 10,8 C 4,4 C 4,9 C 2,9 C 0,0 C 85 % 93 % 0 % 1015,5 hPa 0,0 l/m 7,7 km/h (2 Bft) SW 225 0 min 0,3 UV-I 3,4 C 0,8 C 11,1 km/h (2 Bft)
13.04.2011 15:10 5,6 C 10,8 C 4,5 C 4,9 C 3,4 C 0,0 C 85 % 93 % 0 % 1015,5 hPa 0,0 l/m 7,1 km/h (2 Bft) N 0 0 min 0,3 UV-I 3,3 C 1,5 C 9,3 km/h (2 Bft)
13.04.2011 15:15 5,7 C 10,8 C 4,6 C 5,0 C 3,5 C 0,0 C 86 % 93 % 0 % 1015,8 hPa 0,0 l/m 7,1 km/h (2 Bft) W-SW 247 0 min 0,3 UV-I 3,5 C 1,6 C 10,8 km/h (2 Bft)
13.04.2011 15:20 5,7 C 10,8 C 4,7 C 5,1 C 3,9 C 0,0 C 86 % 93 % 0 % 1015,8 hPa 0,0 l/m 5,8 km/h (2 Bft) S-SO 157 0 min 0,3 UV-I 3,5 C 2,5 C 2,7 km/h (1 Bft)
13.04.2011 15:25 5,7 C 10,8 C 4,7 C 5,1 C 3,9 C 0,0 C 86 % 93 % 0 % 1015,8 hPa 0,0 l/m 6,1 km/h (2 Bft) W 270 0 min 0,3 UV-I 3,5 C 2,4 C 6,9 km/h (2 Bft)
13.04.2011 15:30 5,7 C 10,8 C 4,7 C 5,1 C 3,8 C 0,0 C 86 % 93 % 0 % 1015,8 hPa 0,0 l/m 6,6 km/h (2 Bft) SW 225 0 min 0,3 UV-I 3,5 C 2,1 C 10,6 km/h (2 Bft)
13.04.2011 15:35 5,9 C 10,8 C 4,7 C 5,2 C 3,8 C 0,0 C 86 % 93 % 0 % 1015,4 hPa 0,7 l/m 6,1 km/h (2 Bft) N 360 0 min 0,2 UV-I 3,7 C 2,3 C 3,1 km/h (1 Bft)
13.04.2011 15:40 5,7 C 10,8 C 4,8 C 5,1 C 3,9 C 0,0 C 86 % 93 % 0 % 1015,4 hPa 0,0 l/m 5,6 km/h (1 Bft) W-SW 247 0 min 0,2 UV-I 3,5 C 2,6 C 9,3 km/h (2 Bft)
13.04.2011 15:45 5,7 C 10,8 C 4,7 C 5,1 C 3,8 C 0,0 C 86 % 93 % 0 % 1015,4 hPa 0,0 l/m 6,1 km/h (2 Bft) SW 225 0 min 0,2 UV-I 3,5 C 2,3 C 8,2 km/h (2 Bft)
13.04.2011 15:50 5,7 C 10,8 C 4,7 C 4,9 C 3,4 C 0,0 C 85 % 93 % 0 % 1015,4 hPa 0,0 l/m 7,1 km/h (2 Bft) W-SW 247 0 min 0,2 UV-I 3,4 C 1,5 C 4,7 km/h (1 Bft)
13.04.2011 15:55 5,7 C 10,8 C 4,7 C 4,9 C 3,4 C 0,0 C 86 % 93 % 0 % 1015,7 hPa 0,0 l/m 6,6 km/h (2 Bft) W-NW 292 0 min 0,2 UV-I 3,5 C 1,7 C 4,8 km/h (1 Bft)
13.04.2011 16:00 5,7 C 10,8 C 4,7 C 5,2 C 4,2 C 0,0 C 86 % 93 % 0 % 1015,7 hPa 0,0 l/m 4,7 km/h (1 Bft) W 270 0 min 0,2 UV-I 3,5 C 3,3 C 5,6 km/h (1 Bft)
13.04.2011 16:10 5,6 C 10,8 C 4,7 C 5,0 C 3,9 C 0,0 C 86 % 93 % 0 % 1015,7 hPa 0,7 l/m 5,1 km/h (1 Bft) N 0 0 min 0,2 UV-I 3,4 C 2,8 C 4,5 km/h (1 Bft)
13.04.2011 16:15 5,6 C 10,8 C 4,7 C 5,1 C 4,2 C 0,0 C 86 % 93 % 0 % 1015,8 hPa 0,0 l/m 4,7 km/h (1 Bft) SW 225 0 min 0,2 UV-I 3,4 C 3,3 C 7,6 km/h (2 Bft)
13.04.2011 16:20 5,7 C 10,8 C 4,7 C 5,2 C 4,2 C 0,0 C 86 % 93 % 0 % 1015,8 hPa 0,7 l/m 4,8 km/h (1 Bft) S 180 0 min 0,2 UV-I 3,5 C 3,3 C 12,6 km/h (3 Bft)
13.04.2011 16:25 5,9 C 10,8 C 4,7 C 5,5 C 4,7 C 0,0 C 86 % 93 % 0 % 1015,8 hPa 0,0 l/m 3,9 km/h (1 Bft) SW 225 0 min 0,2 UV-I 3,7 C 4,7 C 2,7 km/h (1 Bft)
13.04.2011 16:30 5,9 C 10,8 C 4,8 C 5,7 C 5,2 C 0,0 C 86 % 93 % 0 % 1015,8 hPa 0,0 l/m 3,1 km/h (1 Bft) W-SW 247 0 min 0,2 UV-I 3,7 C 5,2 C 4,8 km/h (1 Bft)
13.04.2011 16:35 5,9 C 10,8 C 4,8 C 5,7 C 5,3 C 0,0 C 86 % 94 % 0 % 1015,7 hPa 0,0 l/m 2,9 km/h (1 Bft) S-SO 157 0 min 0,2 UV-I 3,7 C 5,3 C 1,9 km/h (1 Bft)
13.04.2011 16:40 5,9 C 10,8 C 4,9 C 5,7 C 5,3 C 0,0 C 86 % 94 % 0 % 1015,7 hPa 0,0 l/m 2,7 km/h (1 Bft) W-NW 292 0 min 0,2 UV-I 3,7 C 5,3 C 3,1 km/h (1 Bft)
13.04.2011 16:45 6,1 C 10,8 C 4,9 C 5,9 C 5,4 C 0,0 C 86 % 94 % 0 % 1015,7 hPa 0,0 l/m 2,1 km/h (1 Bft) S 180 0 min 0,2 UV-I 3,9 C 5,4 C 2,3 km/h (1 Bft)
13.04.2011 16:50 6,1 C 10,8 C 4,9 C 5,9 C 5,5 C 0,0 C 86 % 94 % 0 % 1015,7 hPa 0,0 l/m 1,8 km/h (1 Bft) W-SW 247 0 min 0,2 UV-I 3,9 C 5,5 C 2,1 km/h (1 Bft)
13.04.2011 16:55 6,0 C 10,8 C 5,1 C 5,9 C 5,6 C 0,0 C 86 % 94 % 0 % 1015,6 hPa 0,7 l/m 1,4 km/h (1 Bft) W 270 0 min 0,2 UV-I 3,8 C 5,6 C 0,0 km/h (0 Bft)
13.04.2011 17:00 6,1 C 10,8 C 5,0 C 5,9 C 5,6 C 0,0 C 86 % 94 % 0 % 1015,6 hPa 0,0 l/m 1,3 km/h (1 Bft) S 180 0 min 0,2 UV-I 3,9 C 5,6 C 3,7 km/h (1 Bft)
13.04.2011 17:10 6,0 C 10,8 C 5,1 C 5,9 C 5,6 C 0,0 C 86 % 94 % 0 % 1015,6 hPa 0,0 l/m 0,8 km/h (0 Bft) N 0 0 min 0,1 UV-I 3,8 C 5,6 C 0,0 km/h (0 Bft)
13.04.2011 17:15 6,0 C 10,8 C 5,0 C 5,8 C 5,4 C 0,0 C 86 % 94 % 0 % 1015,8 hPa 0,0 l/m 1,1 km/h (1 Bft) W 270 0 min 0,1 UV-I 3,8 C 5,4 C 1,8 km/h (1 Bft)
13.04.2011 17:20 6,0 C 10,8 C 5,1 C 5,8 C 5,4 C 0,0 C 86 % 94 % 0 % 1015,8 hPa 0,0 l/m 1,1 km/h (1 Bft) SW 225 0 min 0,1 UV-I 3,8 C 5,4 C 1,8 km/h (1 Bft)
13.04.2011 17:25 6,1 C 10,8 C 5,1 C 5,9 C 5,4 C 0,0 C 86 % 94 % 0 % 1015,8 hPa 0,0 l/m 0,5 km/h (0 Bft) NW 315 0 min 0,0 UV-I 3,9 C 5,4 C 0,0 km/h (0 Bft)
13.04.2011 17:30 6,0 C 10,8 C 5,2 C 5,8 C 5,4 C 0,0 C 86 % 94 % 0 % 1015,8 hPa 0,0 l/m 0,3 km/h (0 Bft) SW 225 0 min 0,0 UV-I 3,8 C 5,4 C 0,0 km/h (0 Bft)
13.04.2011 17:35 6,0 C 10,8 C 5,2 C 5,8 C 5,4 C 0,0 C 86 % 94 % 0 % 1015,6 hPa 0,0 l/m 0,2 km/h (0 Bft) W 270 0 min 0,0 UV-I 3,8 C 5,4 C 0,0 km/h (0 Bft)
13.04.2011 17:40 6,0 C 10,8 C 5,3 C 5,8 C 5,4 C 0,0 C 87 % 94 % 0 % 1015,6 hPa 0,0 l/m 0,3 km/h (0 Bft) SW 225 0 min 0,0 UV-I 4,0 C 5,4 C 1,9 km/h (1 Bft)
13.04.2011 17:45 6,0 C 10,8 C 5,2 C 5,8 C 5,4 C 0,0 C 87 % 94 % 0 % 1015,6 hPa 0,0 l/m 0,3 km/h (0 Bft) W-SW 247 0 min 0,0 UV-I 4,0 C 5,4 C 0,0 km/h (0 Bft)
13.04.2011 17:50 6,1 C 10,8 C 5,2 C 5,9 C 5,4 C 0,0 C 87 % 94 % 0 % 1015,6 hPa 0,0 l/m 0,8 km/h (0 Bft) W-SW 247 0 min 0,0 UV-I 4,1 C 5,4 C 3,4 km/h (1 Bft)
13.04.2011 17:55 6,1 C 10,8 C 5,3 C 5,8 C 5,3 C 0,0 C 87 % 94 % 0 % 1016,0 hPa 0,0 l/m 1,8 km/h (1 Bft) SW 225 0 min 0,0 UV-I 4,1 C 5,3 C 2,6 km/h (1 Bft)
13.04.2011 18:00 6,0 C 10,8 C 5,2 C 5,8 C 5,3 C 0,0 C 87 % 94 % 0 % 1016,0 hPa 0,0 l/m 2,1 km/h (1 Bft) SW 225 0 min 0,0 UV-I 4,0 C 5,3 C 2,4 km/h (1 Bft)
13.04.2011 18:10 6,0 C 10,8 C 5,3 C 5,8 C 5,3 C 0,0 C 87 % 94 % 0 % 1016,0 hPa 0,0 l/m 2,1 km/h (1 Bft) N 0 0 min 0,0 UV-I 4,0 C 5,3 C 2,6 km/h (1 Bft)
13.04.2011 18:15 6,0 C 10,8 C 5,2 C 5,8 C 5,3 C 0,0 C 87 % 94 % 0 % 1015,9 hPa 0,0 l/m 2,3 km/h (1 Bft) W-SW 247 0 min 0,0 UV-I 4,0 C 5,3 C 3,7 km/h (1 Bft)
13.04.2011 18:20 6,0 C 10,8 C 5,2 C 5,8 C 5,3 C 0,0 C 87 % 94 % 0 % 1015,9 hPa 0,0 l/m 2,3 km/h (1 Bft) SW 225 0 min 0,0 UV-I 4,0 C 5,3 C 2,9 km/h (1 Bft)
13.04.2011 18:25 6,0 C 10,8 C 5,3 C 5,8 C 5,3 C 0,0 C 87 % 94 % 0 % 1015,9 hPa 0,7 l/m 1,9 km/h (1 Bft) S-SW 202 0 min 0,0 UV-I 4,0 C 5,3 C 0,0 km/h (0 Bft)
13.04.2011 18:30 6,0 C 10,9 C 5,2 C 5,8 C 5,4 C 0,0 C 87 % 94 % 0 % 1015,9 hPa 0,0 l/m 1,1 km/h (1 Bft) S 180 0 min 0,0 UV-I 4,0 C 5,4 C 0,0 km/h (0 Bft)
13.04.2011 18:35 6,1 C 10,9 C 5,2 C 5,9 C 5,4 C 0,0 C 87 % 94 % 0 % 1016,2 hPa 0,0 l/m 0,2 km/h (0 Bft) SW 225 0 min 0,0 UV-I 4,1 C 5,4 C 2,3 km/h (1 Bft)
13.04.2011 18:40 6,0 C 10,8 C 5,3 C 5,8 C 5,4 C 0,0 C 87 % 94 % 0 % 1016,2 hPa 0,0 l/m 0,3 km/h (0 Bft) SW 225 0 min 0,0 UV-I 4,0 C 5,4 C 0,0 km/h (0 Bft)
13.04.2011 18:45 6,0 C 10,9 C 5,3 C 5,8 C 5,4 C 0,0 C 87 % 94 % 0 % 1016,2 hPa 0,0 l/m 0,3 km/h (0 Bft) W-SW 247 0 min 0,0 UV-I 4,0 C 5,4 C 2,4 km/h (1 Bft)
13.04.2011 18:50 6,1 C 10,9 C 5,3 C 5,9 C 5,4 C 0,0 C 87 % 94 % 0 % 1016,2 hPa 0,0 l/m 1,0 km/h (0 Bft) W-SW 247 0 min 0,0 UV-I 4,1 C 5,4 C 2,7 km/h (1 Bft)
13.04.2011 18:55 6,1 C 10,9 C 5,4 C 5,9 C 5,4 C 0,0 C 87 % 94 % 0 % 1016,2 hPa 0,0 l/m 1,6 km/h (1 Bft) W-SW 247 0 min 0,0 UV-I 4,1 C 5,4 C 0,0 km/h (0 Bft)
13.04.2011 19:00 6,0 C 10,9 C 5,4 C 5,8 C 5,4 C 0,0 C 88 % 94 % 0 % 1016,2 hPa 0,0 l/m 1,4 km/h (1 Bft) O 90 0 min 0,0 UV-I 4,2 C 5,4 C 2,9 km/h (1 Bft)
13.04.2011 19:10 6,1 C 10,9 C 5,5 C 5,9 C 5,4 C 0,0 C 87 % 94 % 0 % 1016,2 hPa 0,0 l/m 2,6 km/h (1 Bft) N 0 0 min 0,0 UV-I 4,1 C 5,4 C 3,7 km/h (1 Bft)
13.04.2011 19:15 6,1 C 10,9 C 5,5 C 5,9 C 5,4 C 0,0 C 87 % 94 % 0 % 1016,6 hPa 0,0 l/m 1,8 km/h (1 Bft) W 270 0 min 0,0 UV-I 4,1 C 5,4 C 0,0 km/h (0 Bft)
13.04.2011 19:20 6,1 C 10,9 C 5,5 C 5,9 C 5,4 C 0,0 C 87 % 94 % 0 % 1016,6 hPa 0,0 l/m 0,8 km/h (0 Bft) SW 225 0 min 0,0 UV-I 4,1 C 5,4 C 0,0 km/h (0 Bft)
13.04.2011 19:25 6,1 C 10,9 C 5,3 C 5,9 C 5,4 C 0,0 C 87 % 94 % 0 % 1016,6 hPa 0,0 l/m 0,5 km/h (0 Bft) W 270 0 min 0,0 UV-I 4,1 C 5,4 C 0,0 km/h (0 Bft)
13.04.2011 19:30 6,2 C 10,9 C 5,3 C 5,9 C 5,4 C 0,0 C 87 % 94 % 0 % 1016,6 hPa 0,0 l/m 0,5 km/h (0 Bft) W 270 0 min 0,0 UV-I 4,2 C 5,4 C 0,0 km/h (0 Bft)
13.04.2011 19:35 6,1 C 10,8 C 5,3 C 5,8 C 5,3 C 0,0 C 87 % 94 % 0 % 1016,4 hPa 0,0 l/m 0,5 km/h (0 Bft) NW 315 0 min 0,0 UV-I 4,1 C 5,3 C 1,9 km/h (1 Bft)
13.04.2011 19:40 6,1 C 10,8 C 5,3 C 5,8 C 5,2 C 0,0 C 87 % 94 % 0 % 1016,4 hPa 0,7 l/m 1,4 km/h (1 Bft) SW 225 0 min 0,0 UV-I 4,1 C 5,2 C 4,5 km/h (1 Bft)
13.04.2011 19:45 6,1 C 10,8 C 5,2 C 5,8 C 5,2 C 0,0 C 87 % 94 % 0 % 1016,4 hPa 0,0 l/m 1,4 km/h (1 Bft) SW 225 0 min 0,0 UV-I 4,1 C 5,2 C 0,0 km/h (0 Bft)
13.04.2011 19:50 6,1 C 10,8 C 5,3 C 5,8 C 5,2 C 0,0 C 87 % 94 % 0 % 1016,4 hPa 0,0 l/m 1,0 km/h (0 Bft) W-SW 247 0 min 0,0 UV-I 4,1 C 5,2 C 0,0 km/h (0 Bft)
13.04.2011 19:55 6,0 C 10,9 C 5,2 C 5,7 C 5,1 C 0,0 C 87 % 94 % 0 % 1016,5 hPa 0,0 l/m 0,3 km/h (0 Bft) W-NW 292 0 min 0,0 UV-I 4,0 C 5,1 C 0,0 km/h (0 Bft)
13.04.2011 20:00 6,0 C 10,9 C 5,2 C 5,7 C 5,1 C 0,0 C 87 % 94 % 0 % 1016,5 hPa 0,0 l/m 0,2 km/h (0 Bft) W-SW 247 0 min 0,0 UV-I 4,0 C 5,1 C 0,0 km/h (0 Bft)
13.04.2011 20:10 6,1 C 10,9 C 5,3 C 5,8 C 5,1 C 0,0 C 87 % 94 % 0 % 1016,5 hPa 0,0 l/m 0,2 km/h (0 Bft) N 0 0 min 0,0 UV-I 4,1 C 5,1 C 0,0 km/h (0 Bft)
13.04.2011 20:15 6,0 C 10,9 C 5,2 C 5,7 C 5,1 C 0,0 C 87 % 94 % 0 % 1016,4 hPa 0,0 l/m 0,0 km/h (0 Bft) NW 315 0 min 0,0 UV-I 4,0 C 5,1 C 0,0 km/h (0 Bft)
13.04.2011 20:20 6,0 C 10,9 C 5,2 C 5,7 C 5,1 C 0,0 C 87 % 94 % 0 % 1016,4 hPa 0,0 l/m 0,2 km/h (0 Bft) W 270 0 min 0,0 UV-I 4,0 C 5,1 C 0,0 km/h (0 Bft)
13.04.2011 20:25 5,9 C 10,9 C 5,3 C 5,6 C 5,1 C 0,0 C 87 % 94 % 0 % 1016,4 hPa 0,0 l/m 0,5 km/h (0 Bft) S 180 0 min 0,0 UV-I 3,9 C 5,1 C 0,0 km/h (0 Bft)
13.04.2011 20:30 6,0 C 10,9 C 5,3 C 5,7 C 5,1 C 0,0 C 87 % 94 % 0 % 1016,4 hPa 0,0 l/m 0,3 km/h (0 Bft) W-NW 292 0 min 0,0 UV-I 4,0 C 5,1 C 0,0 km/h (0 Bft)
13.04.2011 20:35 6,0 C 10,9 C 5,3 C 5,7 C 5,1 C 0,0 C 87 % 94 % 0 % 1016,8 hPa 0,0 l/m 0,2 km/h (0 Bft) N-NO 22 0 min 0,0 UV-I 4,0 C 5,1 C 0,0 km/h (0 Bft)
13.04.2011 20:40 5,9 C 10,9 C 5,3 C 5,6 C 5,1 C 0,0 C 87 % 94 % 0 % 1016,8 hPa 0,0 l/m 0,0 km/h (0 Bft) O-NO 67 0 min 0,0 UV-I 3,9 C 5,1 C 0,0 km/h (0 Bft)
13.04.2011 20:45 5,9 C 10,9 C 5,3 C 5,6 C 5,1 C 0,0 C 87 % 94 % 0 % 1016,8 hPa 0,0 l/m 0,3 km/h (0 Bft) O-NO 67 0 min 0,0 UV-I 3,9 C 5,1 C 1,6 km/h (1 Bft)
13.04.2011 20:50 6,0 C 10,9 C 5,3 C 5,7 C 5,1 C 0,0 C 87 % 94 % 0 % 1016,8 hPa 0,0 l/m 0,3 km/h (0 Bft) W-SW 247 0 min 0,0 UV-I 4,0 C 5,1 C 0,0 km/h (0 Bft)
13.04.2011 20:55 5,9 C 10,9 C 5,3 C 5,6 C 5,1 C 0,0 C 87 % 94 % 0 % 1016,8 hPa 0,7 l/m 0,2 km/h (0 Bft) O-NO 67 0 min 0,0 UV-I 3,9 C 5,1 C 0,0 km/h (0 Bft)
13.04.2011 21:00 5,9 C 10,9 C 5,2 C 5,6 C 5,1 C 0,0 C 87 % 94 % 0 % 1016,8 hPa 0,0 l/m 0,2 km/h (0 Bft) NW 315 0 min 0,0 UV-I 3,9 C 5,1 C 0,0 km/h (0 Bft)
13.04.2011 21:10 5,9 C 10,9 C 5,2 C 5,6 C 5,1 C 0,0 C 87 % 94 % 0 % 1016,8 hPa 0,0 l/m 0,5 km/h (0 Bft) N 0 0 min 0,0 UV-I 3,9 C 5,1 C 2,1 km/h (1 Bft)
13.04.2011 21:15 5,9 C 10,9 C 5,1 C 5,6 C 5,0 C 0,0 C 87 % 94 % 0 % 1016,7 hPa 0,0 l/m 1,1 km/h (1 Bft) N-NW 337 0 min 0,0 UV-I 3,9 C 5,0 C 7,6 km/h (2 Bft)
13.04.2011 21:20 5,9 C 10,9 C 5,2 C 5,6 C 5,0 C 0,0 C 87 % 94 % 0 % 1016,7 hPa 0,0 l/m 1,3 km/h (1 Bft) NW 315 0 min 0,0 UV-I 3,9 C 5,0 C 2,4 km/h (1 Bft)
13.04.2011 21:25 5,8 C 10,9 C 5,1 C 5,5 C 5,0 C 0,0 C 87 % 94 % 0 % 1016,7 hPa 0,0 l/m 1,0 km/h (0 Bft) W 270 0 min 0,0 UV-I 3,8 C 5,0 C 0,0 km/h (0 Bft)
13.04.2011 21:30 5,9 C 10,9 C 5,2 C 5,6 C 5,0 C 0,0 C 87 % 94 % 0 % 1016,7 hPa 0,0 l/m 0,3 km/h (0 Bft) W-NW 292 0 min 0,0 UV-I 3,9 C 5,0 C 0,0 km/h (0 Bft)
13.04.2011 21:35 5,9 C 10,9 C 5,2 C 5,6 C 5,0 C 0,0 C 87 % 95 % 0 % 1017,5 hPa 0,0 l/m 0,0 km/h (0 Bft) W 270 0 min 0,0 UV-I 3,9 C 5,0 C 0,0 km/h (0 Bft)
13.04.2011 21:40 5,9 C 10,9 C 5,1 C 5,6 C 5,0 C 0,0 C 87 % 95 % 0 % 1017,5 hPa 0,0 l/m 0,0 km/h (0 Bft) W 270 0 min 0,0 UV-I 3,9 C 5,0 C 0,0 km/h (0 Bft)
13.04.2011 21:45 5,8 C 10,9 C 5,2 C 5,5 C 5,0 C 0,0 C 87 % 95 % 0 % 1017,5 hPa 0,0 l/m 0,2 km/h (0 Bft) S 180 0 min 0,0 UV-I 3,8 C 5,0 C 0,0 km/h (0 Bft)
13.04.2011 21:50 5,7 C 10,9 C 5,1 C 5,5 C 5,0 C 0,0 C 88 % 95 % 0 % 1017,5 hPa 0,0 l/m 0,2 km/h (0 Bft) S-SO 157 0 min 0,0 UV-I 3,9 C 5,0 C 0,0 km/h (0 Bft)
13.04.2011 21:55 5,7 C 10,9 C 5,1 C 5,5 C 5,0 C 0,0 C 88 % 95 % 0 % 1017,5 hPa 0,0 l/m 0,0 km/h (0 Bft) S-SO 157 0 min 0,0 UV-I 3,9 C 5,0 C 0,0 km/h (0 Bft)
13.04.2011 22:00 5,7 C 10,9 C 5,1 C 5,5 C 5,0 C 0,0 C 88 % 95 % 0 % 1017,5 hPa 0,0 l/m 0,0 km/h (0 Bft) S-SO 157 0 min 0,0 UV-I 3,9 C 5,0 C 0,0 km/h (0 Bft)
13.04.2011 22:10 5,6 C 10,9 C 5,1 C 5,4 C 4,9 C 0,0 C 89 % 95 % 0 % 1017,5 hPa 0,0 l/m 0,0 km/h (0 Bft) N 0 0 min 0,0 UV-I 3,9 C 4,9 C 0,0 km/h (0 Bft)
13.04.2011 22:15 5,6 C 10,9 C 5,1 C 5,4 C 4,9 C 0,0 C 89 % 95 % 0 % 1017,1 hPa 0,0 l/m 0,2 km/h (0 Bft) W 270 0 min 0,0 UV-I 3,9 C 4,9 C 0,0 km/h (0 Bft)
13.04.2011 22:21 5,7 C 10,9 C 5,1 C 5,4 C 4,9 C 0,0 C 89 % 95 % 0 % 1017,1 hPa 0,0 l/m 0,2 km/h (0 Bft) W-SW 247 0 min 0,0 UV-I 4,0 C 4,9 C 0,0 km/h (0 Bft)
13.04.2011 22:25 5,7 C 10,9 C 5,1 C 5,4 C 4,9 C 0,0 C 89 % 95 % 0 % 1017,1 hPa 0,0 l/m 0,0 km/h (0 Bft) W 270 0 min 0,0 UV-I 4,0 C 4,9 C 0,0 km/h (0 Bft)
13.04.2011 22:30 5,7 C 10,9 C 5,1 C 5,4 C 4,9 C 0,0 C 89 % 95 % 0 % 1017,1 hPa 0,0 l/m 0,0 km/h (0 Bft) N-NO 22 0 min 0,0 UV-I 4,0 C 4,9 C 0,0 km/h (0 Bft)
13.04.2011 22:35 5,6 C 10,8 C 5,0 C 5,4 C 4,9 C 0,0 C 89 % 95 % 0 % 1017,3 hPa 0,0 l/m 0,3 km/h (0 Bft) N-NW 337 0 min 0,0 UV-I 3,9 C 4,9 C 1,9 km/h (1 Bft)
13.04.2011 22:40 5,7 C 10,9 C 5,1 C 5,4 C 4,9 C 0,0 C 88 % 95 % 0 % 1017,3 hPa 0,0 l/m 0,6 km/h (0 Bft) NW 315 0 min 0,0 UV-I 3,9 C 4,9 C 2,1 km/h (1 Bft)
13.04.2011 22:45 5,9 C 10,8 C 5,1 C 5,6 C 4,9 C 0,0 C 88 % 95 % 0 % 1017,3 hPa 0,0 l/m 1,3 km/h (1 Bft) W-SW 247 0 min 0,0 UV-I 4,1 C 4,9 C 6,0 km/h (2 Bft)
13.04.2011 22:50 5,9 C 10,8 C 5,0 C 5,6 C 4,9 C 0,0 C 87 % 95 % 0 % 1017,3 hPa 0,0 l/m 2,1 km/h (1 Bft) SW 225 0 min 0,0 UV-I 3,9 C 4,9 C 2,3 km/h (1 Bft)
13.04.2011 22:55 5,9 C 10,9 C 5,1 C 5,6 C 4,9 C 0,0 C 87 % 95 % 0 % 1017,2 hPa 0,0 l/m 1,1 km/h (1 Bft) SW 225 0 min 0,0 UV-I 3,9 C 4,9 C 0,0 km/h (0 Bft)
13.04.2011 23:00 5,9 C 10,9 C 5,0 C 5,6 C 4,9 C 0,0 C 87 % 95 % 0 % 1017,2 hPa 0,0 l/m 0,3 km/h (0 Bft) O-NO 67 0 min 0,0 UV-I 3,9 C 4,9 C 0,0 km/h (0 Bft)
13.04.2011 23:10 5,9 C 10,7 C 4,9 C 5,5 C 4,8 C 0,0 C 83 % 95 % 0 % 1017,2 hPa 0,0 l/m 3,4 km/h (1 Bft) N 0 0 min 0,0 UV-I 3,2 C 4,8 C 5,1 km/h (1 Bft)
13.04.2011 23:15 6,0 C 10,7 C 4,8 C 5,6 C 4,7 C 0,0 C 82 % 95 % 0 % 1017,2 hPa 0,0 l/m 3,5 km/h (1 Bft) SW 225 0 min 0,0 UV-I 3,2 C 4,7 C 4,2 km/h (1 Bft)
13.04.2011 23:20 6,0 C 10,6 C 4,8 C 5,5 C 4,6 C 0,0 C 80 % 95 % 0 % 1017,2 hPa 0,0 l/m 4,2 km/h (1 Bft) W-SW 247 0 min 0,0 UV-I 2,8 C 4,6 C 5,8 km/h (2 Bft)
13.04.2011 23:25 6,0 C 10,6 C 4,8 C 5,5 C 4,4 C 0,0 C 78 % 94 % 0 % 1017,2 hPa 0,0 l/m 5,0 km/h (1 Bft) S-SW 202 0 min 0,0 UV-I 2,5 C 3,4 C 3,7 km/h (1 Bft)
13.04.2011 23:30 6,0 C 10,5 C 4,8 C 5,4 C 4,3 C 0,0 C 77 % 94 % 0 % 1017,2 hPa 0,0 l/m 5,3 km/h (1 Bft) SW 225 0 min 0,0 UV-I 2,3 C 3,2 C 3,9 km/h (1 Bft)
13.04.2011 23:35 5,9 C 10,5 C 4,9 C 5,5 C 4,7 C 0,0 C 77 % 93 % 0 % 1017,5 hPa 0,0 l/m 4,2 km/h (1 Bft) S 180 0 min 0,0 UV-I 2,2 C 4,7 C 3,2 km/h (1 Bft)
13.04.2011 23:40 5,9 C 10,5 C 4,8 C 5,7 C 5,3 C 0,0 C 76 % 93 % 0 % 1017,5 hPa 0,0 l/m 3,1 km/h (1 Bft) W-NW 292 0 min 0,0 UV-I 2,0 C 5,3 C 6,8 km/h (2 Bft)
13.04.2011 23:45 5,9 C 10,5 C 4,8 C 5,7 C 5,3 C 0,0 C 76 % 93 % 0 % 1017,5 hPa 0,0 l/m 3,1 km/h (1 Bft) SW 225 0 min 0,0 UV-I 2,0 C 5,3 C 4,0 km/h (1 Bft)
13.04.2011 23:50 5,9 C 10,5 C 4,8 C 5,6 C 5,1 C 0,0 C 76 % 92 % 0 % 1017,5 hPa 0,0 l/m 3,4 km/h (1 Bft) N-NO 22 0 min 0,0 UV-I 2,0 C 5,1 C 2,4 km/h (1 Bft)
13.04.2011 23:55 5,8 C 10,5 C 4,8 C 5,6 C 5,2 C 0,0 C 75 % 92 % 0 % 1017,2 hPa 0,0 l/m 2,6 km/h (1 Bft) N-NW 337 0 min 0,0 UV-I 1,7 C 5,2 C 2,6 km/h (1 Bft)
_ Min-Zeit 12:30 23:30 12:30 11:55 11:20 00:00 00:00 00:00 00:00 09:40 - 20:15 - - - 00:00 00:00 08:40 16:55
Minimum _ 4,6 C 10,5 C 3,4 C 3,3 C 0,0 C 0,0 C 60 % 64 % 0 % 1014,2 hPa - 0,0 km/h (0 Bft) - - - 0,0 UV-I -0,6 C -4,7 C 0,0 km/h (0 Bft)
_ Max-Zeit 00:08 10:35 00:00 00:00 16:55 00:00 22:10 21:35 00:00 00:00 10:30 08:30 - - 00:00 08:40 19:30 16:55 10:15
Maximum _ 6,7 C 24,1 C 6,0 C 5,9 C 5,6 C 0,0 C 89 % 95 % 0 % 1018,8 hPa 1,0 l/m 20,0 km/h
S (4 Bft)
- - 0 min 0,4 UV-I 4,2 C 5,6 C 40,5 km/h
SW (6 Bft)
Durchschnitt _ 5,6 C 11,2 C 4,8 C 4,8 C 2,8 C 0,0 C 80 % 86 % 0 % 1016,1 hPa #14,1 l/m 9,3 km/h (2 Bft) SW - #0 min. 0,2 UV-I 2,4 C 0,3 C 11,6 km/h (2 Bft)
2013 www.wetterstation-wechselburg.de